Time,TemperatureF,DewpointF,PressureIn,WindDirection,WindDirectionDegrees,WindSpeedMPH,WindSpeedGustMPH,Humidity,HourlyPrecipIn,Conditions,Clouds,dailyrainin,SolarRadiationWatts/m^2,SoftwareType,DateUTC
2013-02-25 00:11:00,23.0,7.0,-100.00,SSE,162,3.0,10.0,49,0.00,,,0.00,0.000000,,2013-02-25 07:11:00,
2013-02-25 00:21:00,23.0,7.0,-100.00,SSE,162,3.0,10.0,49,0.00,,,0.00,0.000000,,2013-02-25 07:21:00,
2013-02-25 00:31:00,23.0,7.0,-100.00,SSE,162,3.0,10.0,49,0.00,,,0.00,0.000000,,2013-02-25 07:31:00,
2013-02-25 00:41:00,23.0,7.0,-100.00,SSE,162,3.0,10.0,49,0.00,,,0.00,0.000000,,2013-02-25 07:41:00,
2013-02-25 00:51:00,23.0,7.0,-100.00,SSE,162,3.0,10.0,49,0.00,,,0.00,0.000000,,2013-02-25 07:51:00,
2013-02-25 01:21:00,22.0,6.0,-100.00,SW,215,4.0,8.0,50,0.00,,,0.00,0.000000,,2013-02-25 08:21:00,
2013-02-25 01:31:00,22.0,6.0,-100.00,SW,215,4.0,8.0,50,0.00,,,0.00,0.000000,,2013-02-25 08:31:00,
2013-02-25 01:41:00,22.0,6.0,-100.00,SW,215,4.0,8.0,50,0.00,,,0.00,0.000000,,2013-02-25 08:41:00,
2013-02-25 01:52:00,22.0,6.0,-100.00,SW,215,4.0,8.0,50,0.00,,,0.00,0.000000,,2013-02-25 08:52:00,
2013-02-25 02:21:00,23.0,6.0,-100.00,SSW,203,2.0,8.0,48,0.00,,,0.00,0.000000,,2013-02-25 09:21:00,
2013-02-25 02:31:00,23.0,6.0,-100.00,SSW,203,2.0,8.0,48,0.00,,,0.00,0.000000,,2013-02-25 09:31:00,
2013-02-25 02:41:00,23.0,6.0,-100.00,SSW,203,2.0,8.0,48,0.00,,,0.00,0.000000,,2013-02-25 09:41:00,
2013-02-25 02:51:00,23.0,6.0,-100.00,SSW,203,2.0,8.0,48,0.00,,,0.00,0.000000,,2013-02-25 09:51:00,
2013-02-25 03:21:00,22.0,6.0,-100.00,West,260,4.0,8.0,50,0.00,,,0.00,0.000000,,2013-02-25 10:21:00,
2013-02-25 03:31:00,22.0,6.0,-100.00,West,260,4.0,8.0,50,0.00,,,0.00,0.000000,,2013-02-25 10:31:00,
2013-02-25 03:41:00,22.0,6.0,-100.00,West,260,4.0,8.0,50,0.00,,,0.00,0.000000,,2013-02-25 10:41:00,
2013-02-25 03:52:00,22.0,6.0,-100.00,West,260,4.0,8.0,50,0.00,,,0.00,0.000000,,2013-02-25 10:52:00,
2013-02-25 04:11:00,23.0,6.0,-100.00,SW,236,9.0,9.0,48,0.00,,,0.00,0.000000,,2013-02-25 11:11:00,
2013-02-25 04:21:00,23.0,6.0,-100.00,SW,236,9.0,9.0,48,0.00,,,0.00,0.000000,,2013-02-25 11:21:00,
2013-02-25 04:32:00,23.0,6.0,-100.00,SW,236,9.0,9.0,48,0.00,,,0.00,0.000000,,2013-02-25 11:32:00,
2013-02-25 04:42:00,23.0,6.0,-100.00,SW,236,9.0,9.0,48,0.00,,,0.00,0.000000,,2013-02-25 11:42:00,
2013-02-25 04:52:00,23.0,6.0,-100.00,SW,236,9.0,9.0,48,0.00,,,0.00,0.000000,,2013-02-25 11:52:00,
2013-02-25 05:11:00,22.0,6.0,-100.00,WSW,240,6.0,17.0,50,0.00,,,0.00,0.000000,,2013-02-25 12:11:00,
2013-02-25 05:21:00,22.0,6.0,-100.00,WSW,240,6.0,17.0,50,0.00,,,0.00,0.000000,,2013-02-25 12:21:00,
2013-02-25 05:32:00,22.0,6.0,-100.00,WSW,240,6.0,17.0,50,0.00,,,0.00,0.000000,,2013-02-25 12:32:00,
2013-02-25 05:42:00,22.0,6.0,-100.00,WSW,240,6.0,17.0,50,0.00,,,0.00,0.000000,,2013-02-25 12:42:00,
2013-02-25 05:53:00,22.0,6.0,-100.00,WSW,240,6.0,17.0,50,0.00,,,0.00,0.000000,,2013-02-25 12:53:00,
2013-02-25 06:12:00,23.0,6.0,-100.00,SW,227,13.0,13.0,48,0.00,,,0.00,0.000000,,2013-02-25 13:12:00,
2013-02-25 06:22:00,23.0,6.0,-100.00,SW,227,13.0,13.0,48,0.00,,,0.00,0.000000,,2013-02-25 13:22:00,
2013-02-25 06:31:00,23.0,6.0,-100.00,SW,227,13.0,13.0,48,0.00,,,0.00,0.000000,,2013-02-25 13:31:00,
2013-02-25 06:41:00,23.0,6.0,-100.00,SW,227,13.0,13.0,48,0.00,,,0.00,0.000000,,2013-02-25 13:41:00,
2013-02-25 06:51:00,23.0,6.0,-100.00,SW,227,13.0,13.0,48,0.00,,,0.00,0.000000,,2013-02-25 13:51:00,
2013-02-25 07:16:00,22.0,5.0,-100.00,SW,231,6.0,19.0,47,0.00,,,0.00,0.000000,,2013-02-25 14:16:00,
2013-02-25 07:21:00,22.0,5.0,-100.00,SW,231,6.0,19.0,47,0.00,,,0.00,0.000000,,2013-02-25 14:21:00,
2013-02-25 07:31:00,22.0,5.0,-100.00,SW,231,6.0,19.0,47,0.00,,,0.00,0.000000,,2013-02-25 14:31:00,
2013-02-25 07:41:00,22.0,5.0,-100.00,SW,231,6.0,19.0,47,0.00,,,0.00,0.000000,,2013-02-25 14:41:00,
2013-02-25 07:52:00,22.0,5.0,-100.00,SW,231,6.0,19.0,47,0.00,,,0.00,0.000000,,2013-02-25 14:52:00,
2013-02-25 08:11:00,22.0,6.0,-100.00,West,261,9.0,16.0,50,0.00,,,0.00,16.000000,,2013-02-25 15:11:00,
2013-02-25 08:21:00,22.0,6.0,-100.00,West,261,9.0,16.0,50,0.00,,,0.00,16.000000,,2013-02-25 15:21:00,
2013-02-25 08:32:00,22.0,6.0,-100.00,West,261,9.0,16.0,50,0.00,,,0.00,16.000000,,2013-02-25 15:32:00,
2013-02-25 08:41:00,22.0,6.0,-100.00,West,261,9.0,16.0,50,0.00,,,0.00,16.000000,,2013-02-25 15:41:00,
2013-02-25 08:51:00,22.0,6.0,-100.00,West,261,9.0,16.0,50,0.00,,,0.00,16.000000,,2013-02-25 15:51:00,
2013-02-25 09:21:00,25.0,6.0,-100.00,SW,227,10.0,14.0,44,0.00,,,0.00,113.000000,,2013-02-25 16:21:00,
2013-02-25 09:31:00,25.0,6.0,-100.00,SW,227,10.0,14.0,44,0.00,,,0.00,113.000000,,2013-02-25 16:31:00,
2013-02-25 09:41:00,25.0,6.0,-100.00,SW,227,10.0,14.0,44,0.00,,,0.00,113.000000,,2013-02-25 16:41:00,
2013-02-25 09:51:00,25.0,6.0,-100.00,SW,227,10.0,14.0,44,0.00,,,0.00,113.000000,,2013-02-25 16:51:00,
2013-02-25 10:11:00,29.0,8.0,-100.00,SW,215,12.0,20.0,40,0.00,,,0.00,317.000000,,2013-02-25 17:11:00,
2013-02-25 10:21:00,29.0,8.0,-100.00,SW,215,12.0,20.0,40,0.00,,,0.00,317.000000,,2013-02-25 17:21:00,
2013-02-25 10:31:00,29.0,8.0,-100.00,SW,215,12.0,20.0,40,0.00,,,0.00,317.000000,,2013-02-25 17:31:00,
2013-02-25 10:41:00,29.0,8.0,-100.00,SW,215,12.0,20.0,40,0.00,,,0.00,317.000000,,2013-02-25 17:41:00,
2013-02-25 10:51:00,29.0,8.0,-100.00,SW,215,12.0,20.0,40,0.00,,,0.00,317.000000,,2013-02-25 17:51:00,
2013-02-25 11:12:00,28.0,8.0,-100.00,South,171,7.0,21.0,42,0.00,,,0.00,411.000000,,2013-02-25 18:12:00,
2013-02-25 11:21:00,28.0,8.0,-100.00,South,171,7.0,21.0,42,0.00,,,0.00,411.000000,,2013-02-25 18:21:00,
2013-02-25 11:32:00,28.0,8.0,-100.00,South,171,7.0,21.0,42,0.00,,,0.00,411.000000,,2013-02-25 18:32:00,
2013-02-25 11:41:00,28.0,8.0,-100.00,South,171,7.0,21.0,42,0.00,,,0.00,411.000000,,2013-02-25 18:41:00,
2013-02-25 11:51:00,28.0,8.0,-100.00,South,171,7.0,21.0,42,0.00,,,0.00,411.000000,,2013-02-25 18:51:00,
2013-02-25 12:11:00,31.0,10.0,-100.00,South,175,6.0,15.0,40,0.00,,,0.00,332.000000,,2013-02-25 19:11:00,
2013-02-25 12:21:00,31.0,10.0,-100.00,South,175,6.0,15.0,40,0.00,,,0.00,332.000000,,2013-02-25 19:21:00,
2013-02-25 12:31:00,31.0,10.0,-100.00,South,175,6.0,15.0,40,0.00,,,0.00,332.000000,,2013-02-25 19:31:00,
2013-02-25 12:41:00,31.0,10.0,-100.00,South,175,6.0,15.0,40,0.00,,,0.00,332.000000,,2013-02-25 19:41:00,
2013-02-25 12:52:00,31.0,10.0,-100.00,South,175,6.0,15.0,40,0.00,,,0.00,332.000000,,2013-02-25 19:52:00,
2013-02-25 13:11:00,29.0,10.0,-100.00,SW,221,14.0,16.0,45,0.00,,,0.00,253.000000,,2013-02-25 20:11:00,
2013-02-25 13:21:00,29.0,10.0,-100.00,SW,221,14.0,16.0,45,0.00,,,0.00,253.000000,,2013-02-25 20:21:00,
2013-02-25 13:31:00,29.0,10.0,-100.00,SW,221,14.0,16.0,45,0.00,,,0.00,253.000000,,2013-02-25 20:31:00,
2013-02-25 13:41:00,29.0,10.0,-100.00,SW,221,14.0,16.0,45,0.00,,,0.00,253.000000,,2013-02-25 20:41:00,
2013-02-25 13:52:00,29.0,10.0,-100.00,SW,221,14.0,16.0,45,0.00,,,0.00,253.000000,,2013-02-25 20:52:00,
2013-02-25 14:11:00,31.0,15.0,-100.00,SW,223,17.0,27.0,50,0.00,,,0.00,366.000000,,2013-02-25 21:11:00,
2013-02-25 14:21:00,31.0,15.0,-100.00,SW,223,17.0,27.0,50,0.00,,,0.00,366.000000,,2013-02-25 21:21:00,
2013-02-25 14:31:00,31.0,15.0,-100.00,SW,223,17.0,27.0,50,0.00,,,0.00,366.000000,,2013-02-25 21:31:00,
2013-02-25 14:42:00,31.0,15.0,-100.00,SW,223,17.0,27.0,50,0.00,,,0.00,366.000000,,2013-02-25 21:42:00,
2013-02-25 14:51:00,31.0,15.0,-100.00,SW,223,17.0,27.0,50,0.00,,,0.00,366.000000,,2013-02-25 21:51:00,
2013-02-25 15:11:00,30.0,18.0,-100.00,SW,232,16.0,27.0,60,0.00,,,0.00,345.000000,,2013-02-25 22:11:00,
2013-02-25 15:21:00,30.0,18.0,-100.00,SW,232,16.0,27.0,60,0.00,,,0.00,345.000000,,2013-02-25 22:21:00,
2013-02-25 15:31:00,30.0,18.0,-100.00,SW,232,16.0,27.0,60,0.00,,,0.00,345.000000,,2013-02-25 22:31:00,
2013-02-25 15:41:00,30.0,18.0,-100.00,SW,232,16.0,27.0,60,0.00,,,0.00,345.000000,,2013-02-25 22:41:00,
2013-02-25 15:51:00,30.0,18.0,-100.00,SW,232,16.0,27.0,60,0.00,,,0.00,345.000000,,2013-02-25 22:51:00,
2013-02-25 16:11:00,28.0,19.0,-100.00,SW,220,4.0,26.0,69,0.00,,,0.00,215.000000,,2013-02-25 23:11:00,
2013-02-25 16:22:00,28.0,19.0,-100.00,SW,220,4.0,26.0,69,0.00,,,0.00,215.000000,,2013-02-25 23:22:00,
2013-02-25 16:31:00,28.0,19.0,-100.00,SW,220,4.0,26.0,69,0.00,,,0.00,215.000000,,2013-02-25 23:31:00,
2013-02-25 16:41:00,28.0,19.0,-100.00,SW,220,4.0,26.0,69,0.00,,,0.00,215.000000,,2013-02-25 23:41:00,
2013-02-25 16:51:00,28.0,19.0,-100.00,SW,220,4.0,26.0,69,0.00,,,0.00,215.000000,,2013-02-25 23:51:00,
2013-02-25 17:11:00,27.0,20.0,-100.00,WSW,244,6.0,21.0,75,0.00,,,0.00,100.000000,,2013-02-26 00:11:00,
2013-02-25 17:21:00,27.0,20.0,-100.00,WSW,244,6.0,21.0,75,0.00,,,0.00,100.000000,,2013-02-26 00:21:00,
2013-02-25 17:32:00,27.0,20.0,-100.00,WSW,244,6.0,21.0,75,0.00,,,0.00,100.000000,,2013-02-26 00:32:00,
2013-02-25 17:41:00,27.0,20.0,-100.00,WSW,244,6.0,21.0,75,0.00,,,0.00,100.000000,,2013-02-26 00:41:00,
2013-02-25 17:51:00,27.0,20.0,-100.00,WSW,244,6.0,21.0,75,0.00,,,0.00,100.000000,,2013-02-26 00:51:00,
2013-02-25 18:11:00,25.0,16.0,-100.00,West,267,10.0,22.0,67,0.00,,,0.00,35.000000,,2013-02-26 01:11:00,
2013-02-25 18:21:00,25.0,16.0,-100.00,West,267,10.0,22.0,67,0.00,,,0.00,35.000000,,2013-02-26 01:21:00,
2013-02-25 18:31:00,25.0,16.0,-100.00,West,267,10.0,22.0,67,0.00,,,0.00,35.000000,,2013-02-26 01:31:00,
2013-02-25 18:41:00,25.0,16.0,-100.00,West,267,10.0,22.0,67,0.00,,,0.00,35.000000,,2013-02-26 01:41:00,
2013-02-25 18:51:00,25.0,16.0,-100.00,West,267,10.0,22.0,67,0.00,,,0.00,35.000000,,2013-02-26 01:51:00,
2013-02-25 19:11:00,25.0,13.0,-100.00,West,262,8.0,25.0,61,0.00,,,0.00,4.000000,,2013-02-26 02:11:00,
2013-02-25 19:21:00,25.0,13.0,-100.00,West,262,8.0,25.0,61,0.00,,,0.00,4.000000,,2013-02-26 02:21:00,
2013-02-25 19:32:00,25.0,13.0,-100.00,West,262,8.0,25.0,61,0.00,,,0.00,4.000000,,2013-02-26 02:32:00,
2013-02-25 19:41:00,25.0,13.0,-100.00,West,262,8.0,25.0,61,0.00,,,0.00,4.000000,,2013-02-26 02:41:00,
2013-02-25 19:51:00,25.0,13.0,-100.00,West,262,8.0,25.0,61,0.00,,,0.00,4.000000,,2013-02-26 02:51:00,
2013-02-25 20:11:00,23.0,17.0,-100.00,SSW,203,4.0,14.0,76,0.00,,,0.00,0.000000,,2013-02-26 03:11:00,
2013-02-25 20:21:00,23.0,17.0,-100.00,SSW,203,4.0,14.0,76,0.00,,,0.00,0.000000,,2013-02-26 03:21:00,
2013-02-25 20:31:00,23.0,17.0,-100.00,SSW,203,4.0,14.0,76,0.00,,,0.00,0.000000,,2013-02-26 03:31:00,
2013-02-25 20:41:00,23.0,17.0,-100.00,SSW,203,4.0,14.0,76,0.00,,,0.00,0.000000,,2013-02-26 03:41:00,
2013-02-25 20:51:00,23.0,17.0,-100.00,SSW,203,4.0,14.0,76,0.00,,,0.00,0.000000,,2013-02-26 03:51:00,
2013-02-25 21:21:00,23.0,13.0,-100.00,WSW,238,9.0,9.0,66,0.00,,,0.00,0.000000,,2013-02-26 04:21:00,
2013-02-25 21:32:00,23.0,13.0,-100.00,WSW,238,9.0,9.0,66,0.00,,,0.00,0.000000,,2013-02-26 04:32:00,
2013-02-25 21:42:00,23.0,13.0,-100.00,WSW,238,9.0,9.0,66,0.00,,,0.00,0.000000,,2013-02-26 04:42:00,
2013-02-25 21:51:00,23.0,13.0,-100.00,WSW,238,9.0,9.0,66,0.00,,,0.00,0.000000,,2013-02-26 04:51:00,
2013-02-25 22:11:00,23.0,9.0,-100.00,NW,326,4.0,13.0,54,0.00,,,0.00,0.000000,,2013-02-26 05:11:00,
2013-02-25 22:21:00,23.0,9.0,-100.00,NW,326,4.0,13.0,54,0.00,,,0.00,0.000000,,2013-02-26 05:21:00,
2013-02-25 22:31:00,23.0,9.0,-100.00,NW,326,4.0,13.0,54,0.00,,,0.00,0.000000,,2013-02-26 05:31:00,
2013-02-25 22:42:00,23.0,9.0,-100.00,NW,326,4.0,13.0,54,0.00,,,0.00,0.000000,,2013-02-26 05:42:00,
2013-02-25 22:52:00,23.0,9.0,-100.00,NW,326,4.0,13.0,54,0.00,,,0.00,0.000000,,2013-02-26 05:52:00,
2013-02-25 23:21:00,21.0,7.0,-100.00,West,264,6.0,11.0,55,0.00,,,0.00,0.000000,,2013-02-26 06:21:00,
2013-02-25 23:31:00,21.0,7.0,-100.00,West,264,6.0,11.0,55,0.00,,,0.00,0.000000,,2013-02-26 06:31:00,
2013-02-25 23:41:00,21.0,7.0,-100.00,West,264,6.0,11.0,55,0.00,,,0.00,0.000000,,2013-02-26 06:41:00,
2013-02-25 23:51:00,21.0,7.0,-100.00,West,264,6.0,11.0,55,0.00,,,0.00,0.000000,,2013-02-26 06:51:00,